Total_Precipitation_Accumulation
2.16 2.21 2.13 2.11 2.14 2.15 2.03 1.94 1.99 2.04 2.08 2.06 1.91 1.88 1.82 1.78 1.83 1.99 2.03 2.04 2.02 2.03 1.93 1.93 2.01 2.08 2.24 2.17 2.16 2.20 2.35 2.52 2.54 2.04 1.82 1.84 1.97 2.00 1.94 1.82 1.68 1.54 1.45
2.03 2.04 1.90 1.82 1.82 1.84 1.82 1.74 1.73 1.79 1.78 1.77 1.73 1.61 1.50 1.55 1.71 1.77 1.73 1.77 1.84 1.83 1.78 1.79 1.77 1.86 2.03 2.06 2.13 2.07 2.16 2.35 2.40 2.25 2.00 1.87 1.91 1.92 1.91 1.86 1.59 1.40 1.38
1.98 1.98 1.92 1.78 1.68 1.64 1.64 1.57 1.50 1.56 1.59 1.53 1.54 1.55 1.51 1.46 1.53 1.57 1.56 1.59 1.65 1.72 1.74 1.70 1.63 1.76 1.85 1.86 1.91 1.93 1.95 1.98 2.15 2.08 1.81 1.77 1.74 1.76 1.91 1.85 1.75 1.72 1.36
1.80 1.85 1.82 1.76 1.66 1.58 1.55 1.55 1.51 1.49 1.42 1.33 1.38 1.43 1.43 1.39 1.36 1.38 1.42 1.55 1.69 1.63 1.54 1.54 1.56 1.56 1.58 1.72 1.69 1.81 1.92 2.07 2.10 2.01 1.81 1.70 1.75 1.76 2.02 2.06 1.98 1.80 1.54
1.63 1.64 1.61 1.57 1.55 1.48 1.45 1.48 1.48 1.47 1.38 1.36 1.35 1.33 1.31 1.30 1.22 1.26 1.32 1.38 1.59 1.63 1.53 1.45 1.40 1.42 1.41 1.48 1.40 1.56 1.79 1.96 2.01 2.03 1.93 1.82 1.83 2.03 2.00 1.87 1.86 1.76 1.56
1.60 1.51 1.46 1.46 1.41 1.33 1.29 1.28 1.29 1.30 1.35 1.39 1.37 1.32 1.21 1.07 1.19 1.25 1.21 1.31 1.44 1.50 1.51 1.44 1.34 1.28 1.21 1.22 1.18 1.26 1.49 1.72 1.91 2.07 1.97 1.88 1.84 1.97 2.06 1.96 2.02 2.08 1.89
1.62 1.50 1.39 1.42 1.41 1.32 1.22 1.28 1.26 1.25 1.33 1.38 1.41 1.40 1.27 1.18 1.22 1.18 1.20 1.25 1.38 1.49 1.53 1.54 1.30 1.12 1.25 1.19 1.22 1.22 1.25 1.36 1.64 1.98 2.10 1.95 1.91 2.03 2.23 2.18 2.20 2.22 2.07
1.64 1.55 1.42 1.41 1.40 1.36 1.35 1.38 1.42 1.38 1.38 1.46 1.50 1.45 1.35 1.23 1.20 1.15 1.17 1.18 1.24 1.34 1.40 1.45 1.55 1.51 1.39 1.33 1.28 1.28 1.29 1.33 1.42 1.50 1.75 1.84 1.75 1.85 2.08 2.13 2.20 2.12 1.95
1.57 1.54 1.44 1.35 1.37 1.36 1.39 1.44 1.45 1.46 1.47 1.47 1.45 1.48 1.44 1.35 1.23 1.17 1.21 1.16 1.13 1.14 1.17 1.25 1.37 1.40 1.40 1.33 1.31 1.40 1.44 1.42 1.29 1.37 1.40 1.56 1.69 1.71 1.72 1.89 2.16 2.31 2.17
1.36 1.30 1.25 1.26 1.27 1.27 1.32 1.37 1.48 1.52 1.51 1.45 1.44 1.46 1.44 1.39 1.19 1.05 1.11 1.07 1.10 1.11 1.20 1.25 1.25 1.19 1.29 1.30 1.30 1.52 1.58 1.49 1.54 1.69 1.79 1.84 1.80 1.74 1.64 1.74 2.12 2.37 2.30
1.19 1.21 1.24 1.26 1.30 1.30 1.37 1.37 1.42 1.42 1.50 1.54 1.53 1.48 1.42 1.27 1.10 0.96 0.96 0.92 1.03 1.11 1.22 1.29 1.20 1.12 1.12 1.16 1.24 1.37 1.51 1.61 1.88 2.15 2.16 2.02 1.91 1.83 1.75 1.70 1.87 2.14 2.30
1.17 1.23 1.27 1.31 1.16 1.14 1.39 1.39 1.34 1.43 1.46 1.45 1.44 1.38 1.28 1.18 1.00 0.88 0.87 0.85 0.95 1.08 1.27 1.24 1.14 1.09 0.98 0.99 1.04 1.21 1.40 1.69 2.03 2.29 2.16 1.87 1.70 1.61 1.58 1.59 1.69 1.83 2.02
1.30 1.31 1.28 1.28 1.31 1.36 1.38 1.33 1.30 1.34 1.29 1.14 1.08 1.07 1.05 1.05 1.03 0.91 0.82 0.81 0.87 0.94 1.15 1.22 1.17 1.12 1.03 1.11 1.20 1.34 1.50 1.71 2.01 2.08 1.92 1.74 1.66 1.63 1.58 1.61 1.63 1.68 1.66
1.36 1.29 1.24 1.31 1.43 1.44 1.40 1.26 1.21 1.17 1.14 1.09 1.05 1.03 1.01 1.00 0.90 0.79 0.76 0.80 0.85 0.87 0.99 1.17 1.26 1.27 1.27 1.37 1.48 1.57 1.64 1.72 1.79 1.77 1.69 1.66 1.62 1.63 1.61 1.61 1.68 1.67 1.72
1.44 1.33 1.24 1.17 1.24 1.32 1.18 1.04 1.03 1.01 1.05 1.13 1.16 1.13 1.08 0.97 0.85 0.85 0.77 0.75 0.83 0.91 0.98 1.17 1.36 1.43 1.49 1.55 1.58 1.65 1.71 1.65 1.59 1.56 1.60 1.61 1.60 1.60 1.61 1.66 1.77 1.71 1.67
1.39 1.27 1.14 1.00 0.99 0.98 0.96 0.96 0.99 0.96 0.97 1.01 1.11 1.09 0.98 0.92 0.88 0.84 0.83 0.85 0.90 1.01 1.05 1.26 1.48 1.54 1.57 1.60 1.61 1.66 1.68 1.58 1.49 1.49 1.53 1.54 1.57 1.59 1.63 1.71 1.81 1.80 1.76
1.40 1.26 1.06 0.93 0.88 0.84 0.87 0.97 1.02 0.95 0.92 0.94 1.00 1.01 1.04 0.97 0.88 0.84 0.87 0.94 0.98 1.01 1.05 1.27 1.49 1.67 1.73 1.64 1.56 1.57 1.63 1.63 1.59 1.55 1.55 1.58 1.54 1.54 1.62 1.71 1.74 1.69 1.66
1.24 1.15 1.04 0.94 0.89 0.85 0.82 0.87 1.01 1.11 1.08 1.02 1.00 1.00 1.00 0.98 0.95 0.94 0.96 0.97 1.04 1.08 1.16 1.33 1.47 1.56 1.63 1.64 1.56 1.53 1.55 1.60 1.64 1.61 1.58 1.64 1.65 1.62 1.62 1.67 1.68 1.59 1.55
1.09 1.03 0.97 0.89 0.86 0.84 0.83 0.90 0.99 1.03 1.14 1.20 1.15 1.07 1.10 1.08 1.11 1.11 1.03 0.98 1.06 1.16 1.29 1.39 1.44 1.47 1.47 1.48 1.45 1.41 1.43 1.46 1.47 1.50 1.51 1.56 1.61 1.64 1.62 1.60 1.62 1.57 1.57
0.94 0.95 0.88 0.76 0.71 0.74 0.79 0.89 1.05 1.16 1.26 1.34 1.33 1.22 1.19 1.20 1.26 1.29 1.18 1.13 1.17 1.24 1.31 1.38 1.39 1.35 1.34 1.35 1.31 1.30 1.32 1.32 1.30 1.30 1.31 1.35 1.43 1.50 1.48 1.42 1.42 1.48 1.57
0.79 0.86 0.88 0.75 0.71 0.75 0.82 0.94 1.10 1.23 1.27 1.34 1.37 1.35 1.36 1.33 1.47 1.52 1.45 1.36 1.30 1.30 1.34 1.31 1.35 1.35 1.29 1.30 1.29 1.25 1.23 1.23 1.19 1.18 1.22 1.29 1.35 1.37 1.32 1.31 1.32 1.34 1.43
0.75 0.80 0.79 0.80 0.82 0.84 0.92 1.02 1.13 1.18 1.17 1.19 1.15 1.15 1.26 1.25 1.40 1.49 1.54 1.53 1.42 1.35 1.32 1.29 1.29 1.34 1.38 1.36 1.27 1.24 1.22 1.17 1.14 1.14 1.18 1.21 1.24 1.22 1.21 1.25 1.28 1.33 1.35
0.69 0.74 0.74 0.76 0.81 0.85 0.88 0.94 1.01 1.04 1.05 1.03 1.00 0.99 1.04 1.14 1.24 1.35 1.46 1.50 1.47 1.40 1.33 1.28 1.26 1.25 1.24 1.27 1.24 1.15 1.10 1.07 1.05 1.07 1.14 1.17 1.16 1.13 1.13 1.20 1.24 1.29 1.31
0.63 0.71 0.71 0.69 0.74 0.78 0.80 0.83 0.85 0.89 0.89 0.90 0.90 0.89 0.93 1.03 1.13 1.22 1.28 1.34 1.36 1.35 1.30 1.28 1.26 1.19 1.12 1.10 1.05 0.94 0.89 0.90 0.89 0.92 1.04 1.13 1.12 1.08 1.12 1.20 1.20 1.19 1.20
0.55 0.62 0.63 0.62 0.63 0.67 0.73 0.74 0.72 0.75 0.80 0.83 0.84 0.84 0.84 0.91 0.96 0.98 1.01 1.10 1.21 1.26 1.20 1.16 1.18 1.12 1.02 0.96 0.91 0.82 0.86 0.86 0.83 0.83 0.90 1.02 1.03 1.06 1.10 1.13 1.14 1.15 1.17
0.52 0.54 0.58 0.61 0.63 0.65 0.67 0.68 0.67 0.68 0.71 0.75 0.78 0.76 0.75 0.78 0.83 0.84 0.87 0.91 0.99 1.11 1.14 1.06 1.02 0.99 0.92 0.85 0.85 0.88 0.86 0.78 0.76 0.81 0.82 0.89 0.96 1.02 1.08 1.12 1.08 1.11 1.17